[[{"header":{"parameterUnit":"m.s-1","parameterCategory":1,"la1":30.2991,"la2":30.254,"lo1":-89.0895,"lo2":-89.0444,"dy":0.0017,"dx":0.0017,"nx":28,"ny":28,"refTime":"2024-03-11T21:00:00:Z","depth":0,"parameterNumber":2,"parameterNumberName":"U-component_of_WINDS"},"data":[0,0,0,0,0,0,0,0,0,0,0,0,0,0,0,0,0,0,0,0,0,0,0,0,0,0,0,0,0,0,0,0,0,0,0,0,0,0,0,0,0,0,0,0,0,0,0,0,0,0,0,0,0,0,0,0,0,0,-3.0603,-3.0603,0,-3.0621,-3.0622,-3.0622,-3.0545,-3.0542,-3.054,-3.0538,-3.0559,-3.0561,-3.0564,0,0,0,0,0,0,0,0,0,0,0,0,0,-3.0504,-3.0506,-3.0603,-3.0603,-3.0604,-3.0621,-3.0622,-3.0622,-3.0545,-3.0542,-3.054,-3.0537,-3.0558,-3.0561,-3.0564,0,0,0,0,0,0,0,0,0,0,0,0,0,-3.0537,-3.0507,-3.0603,-3.0567,-3.0564,-3.0621,-3.0622,-3.0622,-3.0546,-3.0542,-3.0539,-3.0536,-3.0557,-3.0561,-3.0565,-3.0657,0,0,-3.0577,-3.0578,0,0,0,0,0,0,0,0,-3.0535,-3.0541,-3.0572,-3.057,-3.0567,-3.0577,-3.0594,-3.0634,-3.0547,-3.0553,-3.0538,-3.0534,-3.0568,-3.0571,-3.0581,-3.0658,-3.0659,-3.0577,-3.0579,-3.0581,-3.0582,0,0,0,0,0,0,0,-3.0533,-3.054,-3.061,-3.0573,-3.057,-3.0551,-3.0552,-3.0601,-3.0579,-3.0552,-3.0547,-3.055,-3.0565,-3.0578,-3.0581,-3.0659,-3.0577,-3.058,-3.0583,-3.0584,-3.0814,-3.0818,0,0,0,0,0,0,-3.0535,-3.0538,-3.061,-3.0611,-3.0542,-3.0556,-3.0557,-3.0577,-3.0578,-3.0575,-3.0553,-3.0546,-3.0573,-3.0577,-3.0582,-3.0692,-3.0581,-3.0585,-3.0587,-3.081,-3.0815,-3.0819,0,0,0,0,0,0,-3.0533,-3.0542,-3.0609,-3.0573,-3.058,-3.0561,-3.0585,-3.0579,-3.0592,-3.0579,-3.0575,-3.0569,-3.057,-3.0576,-3.0639,-3.0691,-3.0587,-3.059,-3.0806,-3.0812,-3.0817,-3.0911,0,0,0,0,0,0,-3.0531,-3.0542,-3.0577,-3.0574,-3.0582,-3.0666,-3.0588,-3.0582,-3.0599,-3.059,-3.0593,-3.059,-3.0568,-3.0634,-3.0643,-3.0695,-3.0593,-3.0801,-3.0809,-3.0815,-3.0903,-3.0919,-3.0933,0,0,0,0,0,-3.0528,-3.0603,-3.0579,-3.0588,-3.0625,-3.0669,-3.0673,-3.0646,-3.0603,-3.0638,-3.063,-3.059,-3.0684,-3.0641,-3.0651,-3.0704,-3.0798,-3.0806,-3.0815,-3.0897,-3.0916,-3.0933,0,0,0,0,0,0,-3.0612,-3.0602,-3.0575,-3.0652,-3.0662,-3.0656,-3.0699,-3.0667,-3.069,-3.0681,-3.0646,-3.0647,-3.0717,-3.0716,-3.0669,-3.0795,-3.0733,-3.0744,-3.0793,-3.0811,-3.0825,-3.0825,-3.0597,0,0,0,0,0,-3.064,-3.0676,-3.0664,-3.0733,-3.0739,-3.0719,-3.0737,-3.0714,-3.0723,-3.0728,-3.0724,-3.0735,-3.0767,-3.0788,-3.0817,-3.0902,-3.0903,-3.0944,-3.0959,-3.0971,-3.0982,-3.1028,-3.1047,-3.0846,-3.0846,-3.0846,0,0,-3.0697,-3.0696,-3.0721,-3.075,-3.0755,-3.0794,-3.0723,-3.0767,-3.0795,-3.0734,-3.0794,-3.0792,-3.0801,-3.0877,-3.0909,-3.0879,-3.1037,-3.0982,-3.0992,-3.0995,-3.1039,-3.1058,-3.1075,-3.0852,-3.0851,-3.085,0,0,-3.0822,-3.0824,-3.0882,-3.0888,-3.0897,-3.0882,-3.0897,-3.0896,-3.0892,-3.095,-3.0906,-3.094,-3.0995,-3.1004,-3.1016,-3.1145,-3.111,-3.1155,-3.1233,-3.1279,-3.1295,-3.1309,-3.1356,-3.1374,-3.1165,-3.1165,-3.1165,0,-3.0892,-3.0948,-3.0916,-3.0963,-3.0978,-3.0923,-3.0983,-3.0991,-3.1009,-3.1021,-3.0985,-3.1054,-3.1057,-3.1134,-3.1165,-3.1176,-3.1192,-3.1155,-3.1295,-3.1308,-3.1321,-3.1366,-3.1384,-3.1171,-3.117,-3.1169,-3.1169,0,-3.1036,-3.1075,-3.1121,-3.114,-3.1159,-3.1212,-3.1188,-3.1212,-3.1188,-3.1178,-3.1239,-3.124,-3.1269,-3.1285,-3.1262,-3.136,-3.134,-3.1301,-3.1239,-3.1346,-3.1388,-3.1405,-3.1179,-3.1177,-3.1175,-3.1174,0,0,-3.1215,-3.1215,-3.1232,-3.1241,-3.1246,-3.1276,-3.1327,-3.1354,-3.1377,-3.139,-3.1433,-3.1481,-3.1444,-3.1458,-3.1435,-3.1476,-3.1579,-3.1431,-3.143,-3.146,-3.1689,-3.1721,-3.1741,-3.1555,-3.1559,-3.1561,-3.1689,0,-3.1339,-3.1426,-3.1398,-3.1486,-3.1523,-3.1472,-3.1516,-3.1525,-3.1516,-3.1547,-3.1538,-3.1573,-3.1521,-3.1529,-3.1566,-3.1559,-3.1625,-3.1549,-3.1597,-3.1599,-3.1598,-3.1762,-3.1796,-3.1916,-3.1705,-3.1708,-3.171,0,-3.1495,-3.1515,-3.1607,-3.1607,-3.1622,-3.1662,-3.1685,-3.1715,-3.1724,-3.1715,-3.1731,-3.17,-3.175,-3.1687,-3.1757,-3.1706,-3.1724,-3.1723,-3.1727,-3.1732,-3.1662,-3.1774,-3.1954,-3.1973,-3.1735,-3.1733,-3.1731,0,-3.162,-3.1669,-3.1731,-3.1739,-3.174,-3.177,-3.1772,-3.1778,-3.1796,-3.1816,-3.1828,-3.1854,-3.1869,-3.1891,-3.1868,-3.1824,-3.1942,-3.1877,-3.1938,-3.1939,-3.1967,-3.1966,-3.2154,-3.1975,-3.1975,-3.1974,-3.1974,0,-3.1762,-3.1821,-3.1787,-3.1825,-3.189,-3.1857,-3.1922,-3.1918,-3.1924,-3.1961,-3.1918,-3.1954,-3.192,-3.1954,-3.1936,-3.1998,-3.2005,-3.2,-3.1995,-3.2005,-3.2006,-3.2018,-3.2009,-3.1979,-3.1978,-3.1977,-3.1976,0,-3.1912,-3.1892,-3.1956,-3.1952,-3.1952,-3.2,-3.1997,-3.2032,-3.202,-3.2068,-3.2078,-3.206,-3.2097,-3.2075,-3.2113,-3.2101,-3.2183,-3.2165,-3.218,-3.2176,-3.2239,-3.2234,-3.2443,-3.247,-3.2272,-3.2274,-3.2275,0,-3.2006,-3.205,-3.205,-3.2072,-3.2076,-3.2112,-3.213,-3.21,-3.2121,-3.2135,-3.2169,-3.2202,-3.2227,-3.2289,-3.228,-3.2309,-3.2293,-3.2364,-3.2297,-3.2306,-3.2297,-3.2295,-3.23,-3.2379,-3.2381,-3.2383,-3.2384,0,-3.2174,-3.2162,-3.219,-3.2215,-3.2238,-3.2257,-3.2272,-3.2292,-3.2262,-3.2288,-3.2325,-3.2344,-3.2383,-3.2417,-3.2442,-3.2444,-3.2411,-3.2405,-3.2421,-3.2433,-3.244,-3.2439,-3.2219,-3.2401,-3.2399,-3.2398,-3.2397,-3.2396,-3.23,-3.2337,-3.2343,-3.2376,-3.2384,-3.2399,-3.2433,-3.2425,-3.2455,-3.2484,-3.2464,-3.2509,-3.2517,-3.2547,-3.2554,-3.2589,-3.256,-3.2583,-3.2589,-3.2596,-3.2606,-3.2433,-3.2593,-3.2592,-3.2592,-3.2592,-3.2591,0,-3.2467,-3.2469,-3.2499,-3.2522,-3.2548,-3.2512,-3.2527,-3.2552,-3.2591,-3.2601,-3.2627,-3.267,-3.2703,-3.2696,-3.2726,-3.2756,-3.2741,-3.2765,-3.2763,-3.2765,-3.2628,-3.2612,-3.2776,-3.2776,-3.2776,-3.2776,-3.2776,-3.2776,-3.2558,-3.2619,-3.2608,-3.2673,-3.2674,-3.2717,-3.2729,-3.2743,-3.2751,-3.2802,-3.2828,-3.2823,-3.2827,-3.2857,-3.2886,-3.2883,-3.2897,-3.2928,-3.292,-3.2793,-3.2774,-3.2757,-3.2742,-3.293,-3.2931,-3.3053,-3.3055,-3.3055]},{"header":{"parameterUnit":"m.s-1","parameterCategory":1,"la1":30.2991,"la2":30.254,"lo1":-89.0895,"lo2":-89.0444,"dy":0.0017,"dx":0.0017,"nx":28,"ny":28,"refTime":"2024-03-11T21:00:00:Z","depth":0,"parameterNumber":3,"parameterNumberName":"V-component_of_WINDS"},"data":[0,0,0,0,0,0,0,0,0,0,0,0,0,0,0,0,0,0,0,0,0,0,0,0,0,0,0,0,0,0,0,0,0,0,0,0,0,0,0,0,0,0,0,0,0,0,0,0,0,0,0,0,0,0,0,0,0,0,-2.963,-2.963,0,-2.9618,-2.9618,-2.9618,-2.9561,-2.956,-2.9558,-2.9557,-2.9546,-2.9547,-2.9548,0,0,0,0,0,0,0,0,0,0,0,0,0,-2.9605,-2.9606,-2.963,-2.963,-2.963,-2.9618,-2.9618,-2.9618,-2.9561,-2.956,-2.9558,-2.9557,-2.9545,-2.9547,-2.9548,0,0,0,0,0,0,0,0,0,0,0,0,0,-2.9607,-2.9606,-2.963,-2.96,-2.9597,-2.9618,-2.9618,-2.9618,-2.9562,-2.956,-2.9558,-2.9556,-2.9545,-2.9546,-2.9548,-2.9597,0,0,-2.9552,-2.9553,0,0,0,0,0,0,0,0,-2.9607,-2.9608,-2.9605,-2.9602,-2.9599,-2.9589,-2.9605,-2.9611,-2.9562,-2.9575,-2.9557,-2.9555,-2.9562,-2.9562,-2.9564,-2.9596,-2.9596,-2.9552,-2.9553,-2.9554,-2.9554,0,0,0,0,0,0,0,-2.9606,-2.9608,-2.9625,-2.9605,-2.9601,-2.9587,-2.9586,-2.9605,-2.958,-2.9574,-2.957,-2.9569,-2.956,-2.9563,-2.9563,-2.9595,-2.9552,-2.9554,-2.9554,-2.9555,-2.9666,-2.9668,0,0,0,0,0,0,-2.961,-2.9608,-2.9626,-2.9625,-2.9598,-2.959,-2.9587,-2.9594,-2.958,-2.9575,-2.9571,-2.9567,-2.9561,-2.9562,-2.9563,-2.9618,-2.9554,-2.9555,-2.9556,-2.9664,-2.9667,-2.9669,0,0,0,0,0,0,-2.961,-2.9613,-2.9626,-2.9615,-2.9616,-2.9592,-2.96,-2.9595,-2.9598,-2.9577,-2.9572,-2.9578,-2.956,-2.9561,-2.9588,-2.9617,-2.9556,-2.9557,-2.9661,-2.9665,-2.9668,-2.973,0,0,0,0,0,0,-2.961,-2.9613,-2.9631,-2.9616,-2.9617,-2.9652,-2.9602,-2.9596,-2.96,-2.9594,-2.9583,-2.9579,-2.9558,-2.9586,-2.959,-2.9618,-2.9558,-2.9659,-2.9663,-2.9667,-2.9725,-2.9735,-2.9743,0,0,0,0,0,-2.9609,-2.9649,-2.9632,-2.9635,-2.9639,-2.9654,-2.9654,-2.9629,-2.9603,-2.9621,-2.9607,-2.9579,-2.9613,-2.959,-2.9593,-2.9622,-2.9657,-2.9662,-2.9666,-2.9721,-2.9733,-2.9743,0,0,0,0,0,0,-2.9669,-2.9647,-2.9628,-2.9665,-2.9661,-2.9644,-2.9666,-2.9642,-2.9647,-2.9641,-2.961,-2.9608,-2.964,-2.9634,-2.9608,-2.9668,-2.963,-2.9636,-2.9671,-2.9682,-2.9691,-2.9691,-2.9559,0,0,0,0,0,-2.9686,-2.97,-2.968,-2.9715,-2.9714,-2.9691,-2.9696,-2.9677,-2.9673,-2.9671,-2.966,-2.9657,-2.9667,-2.9674,-2.9682,-2.9724,-2.972,-2.9745,-2.9754,-2.9762,-2.9767,-2.9788,-2.9799,-2.9684,-2.9684,-2.9684,0,0,-2.9723,-2.9712,-2.9723,-2.9726,-2.9722,-2.9736,-2.969,-2.9708,-2.9718,-2.9674,-2.9699,-2.9691,-2.9685,-2.972,-2.9735,-2.9716,-2.9797,-2.9768,-2.9774,-2.9775,-2.9794,-2.9805,-2.9814,-2.9688,-2.9687,-2.9686,0,0,-2.9796,-2.979,-2.9818,-2.9814,-2.9807,-2.9791,-2.9798,-2.9784,-2.9777,-2.9801,-2.9768,-2.978,-2.9798,-2.9795,-2.9796,-2.9868,-2.9843,-2.9872,-2.9918,-2.9939,-2.9948,-2.9956,-2.9981,-2.9991,-2.9877,-2.9877,-2.9877,0,-2.9843,-2.9863,-2.9835,-2.9855,-2.9857,-2.9817,-2.9844,-2.9842,-2.9839,-2.9841,-2.9819,-2.984,-2.9834,-2.9867,-2.9885,-2.9887,-2.9894,-2.9873,-2.9949,-2.9957,-2.9964,-2.9987,-2.9997,-2.9881,-2.988,-2.988,-2.988,0,-2.992,-2.9935,-2.9958,-2.9955,-2.996,-2.9983,-2.9959,-2.9967,-2.9947,-2.9934,-2.9959,-2.995,-2.9955,-2.9962,-2.9943,-2.9992,-2.9981,-2.9955,-2.9916,-2.9979,-3.0,-3.0009,-2.9886,-2.9885,-2.9884,-2.9883,0,0,-3.0031,-3.0012,-3.0021,-3.0018,-3.0007,-3.0018,-3.004,-3.0045,-3.0052,-3.0051,-3.0068,-3.0084,-3.006,-3.0061,-3.0042,-3.006,-3.0117,-3.0032,-3.0031,-3.0047,-3.017,-3.019,-3.0201,-3.01,-3.0101,-3.0103,-3.0171,0,-3.0101,-3.0137,-3.0112,-3.0151,-3.0164,-3.0126,-3.0145,-3.014,-3.0128,-3.0138,-3.0124,-3.0136,-3.0103,-3.0103,-3.012,-3.0107,-3.0141,-3.0101,-3.0116,-3.0117,-3.0118,-3.0212,-3.0233,-3.0297,-3.0179,-3.018,-3.0182,0,-3.0188,-3.0189,-3.023,-3.0216,-3.022,-3.0238,-3.0239,-3.0249,-3.0243,-3.0233,-3.0234,-3.021,-3.023,-3.0192,-3.022,-3.0193,-3.0198,-3.0192,-3.0194,-3.0194,-3.0153,-3.0215,-3.0317,-3.0327,-3.0195,-3.0194,-3.0193,0,-3.0264,-3.0277,-3.0303,-3.0302,-3.0286,-3.0299,-3.0293,-3.0285,-3.0289,-3.0291,-3.0293,-3.0298,-3.03,-3.0304,-3.0281,-3.0256,-3.0312,-3.0272,-3.0304,-3.0304,-3.0317,-3.0316,-3.0422,-3.0321,-3.032,-3.032,-3.032,0,-3.0345,-3.0371,-3.0337,-3.0353,-3.0381,-3.0352,-3.0381,-3.0371,-3.0364,-3.0377,-3.0345,-3.0358,-3.0328,-3.0338,-3.032,-3.0346,-3.0347,-3.0339,-3.0334,-3.0342,-3.0343,-3.0344,-3.0339,-3.0323,-3.0322,-3.0322,-3.0321,0,-3.0435,-3.0413,-3.0438,-3.0421,-3.0417,-3.0439,-3.0424,-3.0438,-3.0423,-3.0441,-3.0443,-3.042,-3.0431,-3.0409,-3.0416,-3.0404,-3.044,-3.0428,-3.0442,-3.0438,-3.047,-3.0468,-3.058,-3.0593,-3.0484,-3.0485,-3.0486,0,-3.0488,-3.0507,-3.0491,-3.0497,-3.0493,-3.0504,-3.0507,-3.0479,-3.0485,-3.0479,-3.0494,-3.0501,-3.0505,-3.0524,-3.0508,-3.0514,-3.0502,-3.054,-3.0502,-3.0509,-3.0502,-3.0501,-3.0502,-3.0548,-3.055,-3.0551,-3.0552,0,-3.0583,-3.0571,-3.0577,-3.058,-3.0585,-3.0585,-3.0584,-3.0591,-3.0561,-3.0569,-3.0578,-3.0582,-3.0589,-3.0597,-3.0599,-3.0593,-3.0568,-3.0564,-3.0571,-3.0579,-3.0586,-3.0582,-3.0463,-3.0561,-3.056,-3.056,-3.0559,-3.0559,-3.0656,-3.0671,-3.0662,-3.067,-3.0665,-3.0664,-3.0676,-3.0663,-3.067,-3.0673,-3.0657,-3.067,-3.0663,-3.0663,-3.066,-3.067,-3.0652,-3.0663,-3.0666,-3.0669,-3.0674,-3.0585,-3.067,-3.067,-3.067,-3.0669,-3.0669,0,-3.0749,-3.0741,-3.0749,-3.0747,-3.0753,-3.0728,-3.0725,-3.0732,-3.0744,-3.0739,-3.0744,-3.0755,-3.0762,-3.0747,-3.0752,-3.0763,-3.0752,-3.0765,-3.0764,-3.0763,-3.069,-3.0683,-3.0775,-3.0775,-3.0775,-3.0775,-3.0775,-3.0774,-3.0798,-3.0822,-3.0809,-3.083,-3.0822,-3.0834,-3.0835,-3.0834,-3.083,-3.0843,-3.0849,-3.0839,-3.083,-3.0834,-3.0839,-3.0835,-3.0838,-3.0856,-3.0847,-3.0779,-3.0768,-3.0759,-3.0752,-3.0857,-3.0857,-3.0919,-3.092,-3.0921]}]]